Dn Vatan — TCZN6 — position and weather

sailwx.info

Track history (hours):
 
Tides and Currents Weather Stations Pressure Air Temp Water Temp Dewpoint Dewpoint Depression Visibility Wind Speed Wind Dir Waves Ship Positions

Dn Vatan

Last reported at 2014-Jul-22 13:23 UTC. Time now 2014-Jul-22 17:29 UTC.
Position N 57°40' E 009°34'.

Length 196 m; draft 6.6 m.

Type: Cargo ship. MMSI: 270991365.

Date/timePositionNaut miles runAvg speedWind from/ knotsBaromVisibWave heightAir tempDewpointWater temp
2014-Jul-22 13:23N 57°40' E 009°34'1113.2
2014-Jul-22 12:33N 57°42' E 009°54'1313.0
2014-Jul-22 11:33N 57°46' E 010°18'1312.9
2014-Jul-22 10:33N 57°48' E 010°42'1010.0
2014-Jul-22 09:33N 57°43' E 010°57'1212.0
2014-Jul-22 08:33N 57°35' E 011°14'1313.3
2014-Jul-22 07:34N 57°24' E 011°30'1313.4
2014-Jul-22 06:34N 57°12' E 011°37'1313.3
2014-Jul-22 05:33N 56°59' E 011°45'1312.7
2014-Jul-22 04:33N 56°47' E 011°52'1211.6
2014-Jul-22 03:33N 56°36' E 011°44'1312.5
2014-Jul-22 02:33N 56°26' E 011°32'1312.9
2014-Jul-22 01:33N 56°14' E 011°21'1413.8
2014-Jul-22 00:32N 56°03' E 011°07'2612.8
2014-Jul-21 22:31N 55°39' E 010°47'3112.3
2014-Jul-21 20:02N 55°10' E 011°00'1013.9
2014-Jul-21 19:17N 54°59' E 010°59'1213.9
2014-Jul-21 18:24N 54°48' E 010°50'1011.3
2014-Jul-21 17:31N 54°38' E 010°54'1313.9
2014-Jul-21 16:33N 54°35' E 011°16'1414.4
2014-Jul-21 15:33N 54°29' E 011°38'1413.8
2014-Jul-21 14:33N 54°27' E 012°02'10 9.9
2014-Jul-21 13:34N 54°33' E 012°15'8 7.9
2014-Jul-21 12:34N 54°39' E 012°23'1211.8
2014-Jul-21 11:33N 54°45' E 012°41'1313.1
2014-Jul-21 10:33N 54°52' E 013°01'1313.0
2014-Jul-21 09:33N 54°56' E 013°22'1313.2
2014-Jul-21 08:33N 55°00' E 013°44'1413.6
2014-Jul-21 07:33N 55°06' E 014°05'1413.6
2014-Jul-21 06:33N 55°16' E 014°21'1413.6
2014-Jul-21 05:33N 55°27' E 014°35'1313.2
2014-Jul-21 04:33N 55°33' E 014°56'1313.5
2014-Jul-21 03:33N 55°39' E 015°18'1413.6
2014-Jul-21 02:34N 55°42' E 015°41'1413.6
2014-Jul-21 01:33N 55°46' E 016°04'1413.7
2014-Jul-21 00:34N 55°49' E 016°28'1413.5
2014-Jul-20 23:34N 55°52' E 016°51'1313.5
2014-Jul-20 22:34N 55°56' E 017°15'1313.3
2014-Jul-20 21:33N 55°59' E 017°38'1413.6
2014-Jul-20 20:34N 56°05' E 017°59'1313.5
2014-Jul-20 19:34N 56°12' E 018°20'1313.4
2014-Jul-20 18:34N 56°20' E 018°39'1313.3
2014-Jul-20 17:34N 56°31' E 018°54'1413.7
2014-Jul-20 16:33N 56°43' E 019°06'1413.8
2014-Jul-20 15:34N 56°55' E 019°17'1413.7
2014-Jul-20 14:33N 57°07' E 019°28'1312.6
2014-Jul-20 13:33N 57°18' E 019°39'1313.4
2014-Jul-20 12:33N 57°30' E 019°51'14212.5
2014-Jul-20 01:13N 59°19' E 022°46'913.1
2014-Jul-20 00:30N 59°21' E 023°04'1213.0
2014-Jul-19 23:33N 59°23' E 023°28'1312.7
2014-Jul-19 22:32N 59°23' E 023°53'6 6.6
2014-Jul-19 21:33N 59°20' E 024°04'0 0.0
2014-Jul-19 04:31N 59°20' E 024°04'0 0.0
2014-Jul-19 02:31N 59°20' E 024°04'0 0.0
2014-Jul-19 01:31N 59°20' E 024°04'0 0.0
2014-Jul-19 00:31N 59°20' E 024°04'0 0.0
2014-Jul-18 23:31N 59°20' E 024°04'0 0.0
2014-Jul-18 22:28N 59°20' E 024°04'0 0.0
2014-Jul-18 21:28N 59°20' E 024°04'0 0.0
2014-Jul-17 17:34N 59°20' E 024°04'5 4.4
2014-Jul-17 16:31N 59°23' E 023°58'1111.1
2014-Jul-17 15:33N 59°23' E 023°37'1313.4
2014-Jul-17 14:33N 59°20' E 023°11'1513.3
2014-Jul-17 13:24N 59°17' E 022°42'12612.6
2014-Jul-17 03:24N 57°27' E 020°46'1213.3
2014-Jul-17 02:30N 57°15' E 020°45'95 6.2
2014-Jul-16 11:14N 55°41' E 021°09'0 0.0
2014-Jul-16 10:32N 55°41' E 021°09'0 0.0
2014-Jul-16 09:32N 55°41' E 021°09'0 0.0
2014-Jul-16 08:26N 55°41' E 021°09'0 0.0
2014-Jul-16 07:32N 55°41' E 021°09'0 0.0
2014-Jul-16 06:29N 55°41' E 021°09'0 0.0
2014-Jul-16 04:23N 55°41' E 021°09'0 0.0
2014-Jul-16 03:26N 55°41' E 021°09'0 0.0
2014-Jul-16 02:32N 55°41' E 021°09'9 0.3
2014-Jul-15 01:33N 55°43' E 020°54'1413.4
2014-Jul-15 00:31N 55°33' E 020°37'1413.6
2014-Jul-14 23:31N 55°24' E 020°18'1313.6
2014-Jul-14 22:33N 55°15' E 020°02'1313.5
2014-Jul-14 21:33N 55°06' E 019°44'1313.4
2014-Jul-14 20:33N 54°56' E 019°28'1313.4
2014-Jul-14 19:33N 54°47' E 019°11'1313.2
2014-Jul-14 18:33N 54°37' E 018°56'1111.1
2014-Jul-14 17:33N 54°32' E 018°39'3 3.2
2014-Jul-14 16:31N 54°32' E 018°33'0 0.0
2014-Jul-14 15:31N 54°32' E 018°33'0 0.0
2014-Jul-14 14:31N 54°32' E 018°33'0 0.0
2014-Jul-14 13:32N 54°32' E 018°33'0 0.0
2014-Jul-14 12:31N 54°32' E 018°33'0 0.0
2014-Jul-14 11:32N 54°32' E 018°33'0 0.0
2014-Jul-14 10:31N 54°32' E 018°33'0 0.0
2014-Jul-14 09:31N 54°32' E 018°33'0 0.0
2014-Jul-14 08:32N 54°32' E 018°33'0 0.0
2014-Jul-14 07:31N 54°32' E 018°33'0 0.0
2014-Jul-14 06:31N 54°32' E 018°33'0 0.0
2014-Jul-14 05:31N 54°32' E 018°33'0 0.0
2014-Jul-14 04:31N 54°32' E 018°33'0 0.0
2014-Jul-14 03:31N 54°32' E 018°33'0 0.0
2014-Jul-14 02:31N 54°32' E 018°33'0 0.0
2014-Jul-14 01:31N 54°32' E 018°33'0 0.0
2014-Jul-14 00:31N 54°32' E 018°33'0 0.0
2014-Jul-13 23:31N 54°32' E 018°33'0 0.0
2014-Jul-13 22:31N 54°32' E 018°33'0 0.0
2014-Jul-13 21:32N 54°32' E 018°33'0 0.0
2014-Jul-13 20:31N 54°32' E 018°33'0 0.0
2014-Jul-13 19:31N 54°32' E 018°33'0 0.0
2014-Jul-13 18:31N 54°32' E 018°33'0 0.0
2014-Jul-13 17:31N 54°32' E 018°33'0 0.0
2014-Jul-13 16:31N 54°32' E 018°33'0 0.0
2014-Jul-13 15:31N 54°32' E 018°33'0 0.0
2014-Jul-13 14:31N 54°32' E 018°33'0 0.0
2014-Jul-13 13:31N 54°32' E 018°33'0 0.0
2014-Jul-13 12:32N 54°32' E 018°33'0 0.0
2014-Jul-13 11:32N 54°32' E 018°33'0 0.0
2014-Jul-13 10:31N 54°32' E 018°33'0 0.0
2014-Jul-13 09:31N 54°32' E 018°33'0 0.0
2014-Jul-13 08:31N 54°32' E 018°33'0 0.0
2014-Jul-13 07:32N 54°32' E 018°33'0 0.0
2014-Jul-13 06:31N 54°32' E 018°33'0 0.0
2014-Jul-13 05:31N 54°32' E 018°33'0 0.0
2014-Jul-13 04:32N 54°32' E 018°33'0 0.0
2014-Jul-13 03:31N 54°32' E 018°33'0 0.0
2014-Jul-13 02:31N 54°32' E 018°33'0 0.0
2014-Jul-13 01:31N 54°32' E 018°33'0 0.0
2014-Jul-13 00:31N 54°32' E 018°33'0 0.0
2014-Jul-12 23:31N 54°32' E 018°33'0 0.0
2014-Jul-12 22:31N 54°32' E 018°33'0 0.0
2014-Jul-12 21:31N 54°32' E 018°33'0 0.0
2014-Jul-12 20:31N 54°32' E 018°33'0 0.0
2014-Jul-12 19:31N 54°32' E 018°33'0 0.0
2014-Jul-12 18:31N 54°32' E 018°33'0 0.0
2014-Jul-12 17:32N 54°32' E 018°33'0 0.0
2014-Jul-12 16:31N 54°32' E 018°33'0 0.0
2014-Jul-12 15:31N 54°32' E 018°33'0 0.0
2014-Jul-12 14:31N 54°32' E 018°33'0 0.0
2014-Jul-12 13:31N 54°32' E 018°33'  
Track history (hours):
 
Tides and Currents Weather Stations Pressure Air Temp Water Temp Dewpoint Dewpoint Depression Visibility Wind Speed Wind Dir Waves Ship Positions

Dn Vatan

Last reported at 2014-Jul-22 13:23 UTC. Time now 2014-Jul-22 17:29 UTC.
Position N 57°40' E 009°34'.

Length 196 m; draft 6.6 m.

Type: Cargo ship. MMSI: 270991365.

Date/timePositionNaut miles runAvg speedWind from/ knotsBaromVisibWave heightAir tempDewpointWater temp
2014-Jul-22 13:23N 57°40' E 009°34'1113.2
2014-Jul-22 12:33N 57°42' E 009°54'1313.0
2014-Jul-22 11:33N 57°46' E 010°18'1312.9
2014-Jul-22 10:33N 57°48' E 010°42'1010.0
2014-Jul-22 09:33N 57°43' E 010°57'1212.0
2014-Jul-22 08:33N 57°35' E 011°14'1313.3
2014-Jul-22 07:34N 57°24' E 011°30'1313.4
2014-Jul-22 06:34N 57°12' E 011°37'1313.3
2014-Jul-22 05:33N 56°59' E 011°45'1312.7
2014-Jul-22 04:33N 56°47' E 011°52'1211.6
2014-Jul-22 03:33N 56°36' E 011°44'1312.5
2014-Jul-22 02:33N 56°26' E 011°32'1312.9
2014-Jul-22 01:33N 56°14' E 011°21'1413.8
2014-Jul-22 00:32N 56°03' E 011°07'2612.8
2014-Jul-21 22:31N 55°39' E 010°47'3112.3
2014-Jul-21 20:02N 55°10' E 011°00'1013.9
2014-Jul-21 19:17N 54°59' E 010°59'1213.9
2014-Jul-21 18:24N 54°48' E 010°50'1011.3
2014-Jul-21 17:31N 54°38' E 010°54'1313.9
2014-Jul-21 16:33N 54°35' E 011°16'1414.4
2014-Jul-21 15:33N 54°29' E 011°38'1413.8
2014-Jul-21 14:33N 54°27' E 012°02'10 9.9
2014-Jul-21 13:34N 54°33' E 012°15'8 7.9
2014-Jul-21 12:34N 54°39' E 012°23'1211.8
2014-Jul-21 11:33N 54°45' E 012°41'1313.1
2014-Jul-21 10:33N 54°52' E 013°01'1313.0
2014-Jul-21 09:33N 54°56' E 013°22'1313.2
2014-Jul-21 08:33N 55°00' E 013°44'1413.6
2014-Jul-21 07:33N 55°06' E 014°05'1413.6
2014-Jul-21 06:33N 55°16' E 014°21'1413.6
2014-Jul-21 05:33N 55°27' E 014°35'1313.2
2014-Jul-21 04:33N 55°33' E 014°56'1313.5
2014-Jul-21 03:33N 55°39' E 015°18'1413.6
2014-Jul-21 02:34N 55°42' E 015°41'1413.6
2014-Jul-21 01:33N 55°46' E 016°04'1413.7
2014-Jul-21 00:34N 55°49' E 016°28'1413.5
2014-Jul-20 23:34N 55°52' E 016°51'1313.5
2014-Jul-20 22:34N 55°56' E 017°15'1313.3
2014-Jul-20 21:33N 55°59' E 017°38'1413.6
2014-Jul-20 20:34N 56°05' E 017°59'1313.5
2014-Jul-20 19:34N 56°12' E 018°20'1313.4
2014-Jul-20 18:34N 56°20' E 018°39'1313.3
2014-Jul-20 17:34N 56°31' E 018°54'1413.7
2014-Jul-20 16:33N 56°43' E 019°06'1413.8
2014-Jul-20 15:34N 56°55' E 019°17'1413.7
2014-Jul-20 14:33N 57°07' E 019°28'1312.6
2014-Jul-20 13:33N 57°18' E 019°39'1313.4
2014-Jul-20 12:33N 57°30' E 019°51'14212.5
2014-Jul-20 01:13N 59°19' E 022°46'913.1
2014-Jul-20 00:30N 59°21' E 023°04'1213.0
2014-Jul-19 23:33N 59°23' E 023°28'1312.7
2014-Jul-19 22:32N 59°23' E 023°53'6 6.6
2014-Jul-19 21:33N 59°20' E 024°04'0 0.0
2014-Jul-19 04:31N 59°20' E 024°04'0 0.0
2014-Jul-19 02:31N 59°20' E 024°04'0 0.0
2014-Jul-19 01:31N 59°20' E 024°04'0 0.0
2014-Jul-19 00:31N 59°20' E 024°04'0 0.0
2014-Jul-18 23:31N 59°20' E 024°04'0 0.0
2014-Jul-18 22:28N 59°20' E 024°04'0 0.0
2014-Jul-18 21:28N 59°20' E 024°04'0 0.0
2014-Jul-17 17:34N 59°20' E 024°04'5 4.4
2014-Jul-17 16:31N 59°23' E 023°58'1111.1
2014-Jul-17 15:33N 59°23' E 023°37'1313.4
2014-Jul-17 14:33N 59°20' E 023°11'1513.3
2014-Jul-17 13:24N 59°17' E 022°42'12612.6
2014-Jul-17 03:24N 57°27' E 020°46'1213.3
2014-Jul-17 02:30N 57°15' E 020°45'95 6.2
2014-Jul-16 11:14N 55°41' E 021°09'0 0.0
2014-Jul-16 10:32N 55°41' E 021°09'0 0.0
2014-Jul-16 09:32N 55°41' E 021°09'0 0.0
2014-Jul-16 08:26N 55°41' E 021°09'0 0.0
2014-Jul-16 07:32N 55°41' E 021°09'0 0.0
2014-Jul-16 06:29N 55°41' E 021°09'0 0.0
2014-Jul-16 04:23N 55°41' E 021°09'0 0.0
2014-Jul-16 03:26N 55°41' E 021°09'0 0.0
2014-Jul-16 02:32N 55°41' E 021°09'9 0.3
2014-Jul-15 01:33N 55°43' E 020°54'1413.4
2014-Jul-15 00:31N 55°33' E 020°37'1413.6
2014-Jul-14 23:31N 55°24' E 020°18'1313.6
2014-Jul-14 22:33N 55°15' E 020°02'1313.5
2014-Jul-14 21:33N 55°06' E 019°44'1313.4
2014-Jul-14 20:33N 54°56' E 019°28'1313.4
2014-Jul-14 19:33N 54°47' E 019°11'1313.2
2014-Jul-14 18:33N 54°37' E 018°56'1111.1
2014-Jul-14 17:33N 54°32' E 018°39'3 3.2
2014-Jul-14 16:31N 54°32' E 018°33'0 0.0
2014-Jul-14 15:31N 54°32' E 018°33'0 0.0
2014-Jul-14 14:31N 54°32' E 018°33'0 0.0
2014-Jul-14 13:32N 54°32' E 018°33'0 0.0
2014-Jul-14 12:31N 54°32' E 018°33'0 0.0
2014-Jul-14 11:32N 54°32' E 018°33'0 0.0
2014-Jul-14 10:31N 54°32' E 018°33'0 0.0
2014-Jul-14 09:31N 54°32' E 018°33'0 0.0
2014-Jul-14 08:32N 54°32' E 018°33'0 0.0
2014-Jul-14 07:31N 54°32' E 018°33'0 0.0
2014-Jul-14 06:31N 54°32' E 018°33'0 0.0
2014-Jul-14 05:31N 54°32' E 018°33'0 0.0
2014-Jul-14 04:31N 54°32' E 018°33'0 0.0
2014-Jul-14 03:31N 54°32' E 018°33'0 0.0
2014-Jul-14 02:31N 54°32' E 018°33'0 0.0
2014-Jul-14 01:31N 54°32' E 018°33'0 0.0
2014-Jul-14 00:31N 54°32' E 018°33'0 0.0
2014-Jul-13 23:31N 54°32' E 018°33'0 0.0
2014-Jul-13 22:31N 54°32' E 018°33'0 0.0
2014-Jul-13 21:32N 54°32' E 018°33'0 0.0
2014-Jul-13 20:31N 54°32' E 018°33'0 0.0
2014-Jul-13 19:31N 54°32' E 018°33'0 0.0
2014-Jul-13 18:31N 54°32' E 018°33'0 0.0
2014-Jul-13 17:31N 54°32' E 018°33'0 0.0
2014-Jul-13 16:31N 54°32' E 018°33'0 0.0
2014-Jul-13 15:31N 54°32' E 018°33'0 0.0
2014-Jul-13 14:31N 54°32' E 018°33'0 0.0
2014-Jul-13 13:31N 54°32' E 018°33'0 0.0
2014-Jul-13 12:32N 54°32' E 018°33'0 0.0
2014-Jul-13 11:32N 54°32' E 018°33'0 0.0
2014-Jul-13 10:31N 54°32' E 018°33'0 0.0
2014-Jul-13 09:31N 54°32' E 018°33'0 0.0
2014-Jul-13 08:31N 54°32' E 018°33'0 0.0
2014-Jul-13 07:32N 54°32' E 018°33'0 0.0
2014-Jul-13 06:31N 54°32' E 018°33'0 0.0
2014-Jul-13 05:31N 54°32' E 018°33'0 0.0
2014-Jul-13 04:32N 54°32' E 018°33'0 0.0
2014-Jul-13 03:31N 54°32' E 018°33'0 0.0
2014-Jul-13 02:31N 54°32' E 018°33'0 0.0
2014-Jul-13 01:31N 54°32' E 018°33'0 0.0
2014-Jul-13 00:31N 54°32' E 018°33'0 0.0
2014-Jul-12 23:31N 54°32' E 018°33'0 0.0
2014-Jul-12 22:31N 54°32' E 018°33'0 0.0
2014-Jul-12 21:31N 54°32' E 018°33'0 0.0
2014-Jul-12 20:31N 54°32' E 018°33'0 0.0
2014-Jul-12 19:31N 54°32' E 018°33'0 0.0
2014-Jul-12 18:31N 54°32' E 018°33'0 0.0
2014-Jul-12 17:32N 54°32' E 018°33'0 0.0
2014-Jul-12 16:31N 54°32' E 018°33'0 0.0
2014-Jul-12 15:31N 54°32' E 018°33'0 0.0
2014-Jul-12 14:31N 54°32' E 018°33'0 0.0
2014-Jul-12 13:31N 54°32' E 018°33'  

Dump ship's entire track history